User: anonymous   Login
Location: Cincinnati Observatory Center
(39.1389°N, 84.4225°W)
Time: 20:50:08
(UTC-04:00)
Language:

JAS-1B - Orbit

View from above orbital plane
View from above orbital plane
View from above satellite
View from above satellite

Ground track
Ground track

The orbit data is extracted from the following two-line orbital elements,

1 20480U 90013C   17295.54908445 -.00000029 +00000-0 -14094-5 0  9996
2 20480 099.0720 044.9825 0540930 102.6262 263.5855 12.83417240298011
Epoch (UTC): 22 October 2017 13:10:40
Eccentricity: 0.0540930
inclination: 99.0720°
perigee height: 911 km
apogee height: 1744 km
right ascension of ascending node: 44.9825°
argument of perigee: 102.6262°
revolutions per day: 12.83417240
mean anomaly at epoch: 263.5855°
orbit number at epoch: 29801

The dashed part of the orbit path shows where the satellite is in the earth's shadow,  

DLR